Thunderstorms From: 15-12-2017 06:00 Until: 16-12-2017 06:00 warning for: Thunderstorms Level: Yellow info button

Although rather usual in this region, locally or potentially dangerous phenomena are expected. (such as local winds, summer thunderstorms, rising streams or high waves) Be aware and pay attention to the latest weather updates, especially if you carry out activities exposed to weather or close to a stream or shoreline. 


Meteo18 Weather Cam more information Meteo18 Weather Cam


warning for Thunderstorms more information blitzortung!


Rain radar more information rain snow radar


Visit our other weather sites:

Template documentation
and downloads

And another site



Weather Underground History page Text

Daily Summary for May 30, 2016 Units:  Metric    English   Both
« Previous Day
Next Day »
Daily Weekly Monthly Yearly Custom
  High: Low: Average:
Temperature: 14.7 °C 12.3 °C 13.7 °C
Dew Point: 14.0 °C 11.7 °C 12.9 °C
Humidity: 96 % 91 % 95 %
Wind Speed: 3.2 km/h 0.0 km/h 0.4 km/h
Wind Gust: 14.5 km/h - -
Wind:- - South
Pressure: 1010.7 hPa 1007.3 hPa -
Precipitation: 15.5 mm    
Historical Graphs
 
 
Tabular Data for May 30, 2016
Time Temperature Dew Point Pressure Wind Wind Speed Wind Gust Humidity Rainfall Rate (Hourly)
00:02 14.5 °C 13.9 °C 1008.4 hPa Calm     96 % 0.0 mm
00:12 14.5 °C 13.9 °C 1008.4 hPa Calm     96 % 0.0 mm
00:17 14.5 °C 13.9 °C 1008.4 hPa Calm     96 % 0.0 mm
00:22 14.5 °C 13.9 °C 1008.4 hPa Calm     96 % 0.0 mm
00:27 14.6 °C 14.0 °C 1008.4 hPa Calm     96 % 0.0 mm
00:32 14.6 °C 14.0 °C 1008.4 hPa Calm     96 % 0.0 mm
00:42 14.6 °C 14.0 °C 1008.4 hPa Calm     96 % 0.0 mm
00:47 14.6 °C 14.0 °C 1008.4 hPa Calm     96 % 0.0 mm
00:52 14.6 °C 14.0 °C 1008.4 hPa Calm   1.6 km/h 96 % 0.0 mm
00:57 14.6 °C 14.0 °C 1008.4 hPa Calm   1.6 km/h 96 % 0.0 mm
01:02 14.6 °C 14.0 °C 1008.4 hPa Calm   1.6 km/h 96 % 0.0 mm
01:12 14.5 °C 13.9 °C 1008.4 hPa Calm   3.2 km/h 96 % 0.0 mm
01:17 14.5 °C 13.9 °C 1008.4 hPa Calm   3.2 km/h 96 % 0.0 mm
01:22 14.5 °C 13.9 °C 1008.0 hPa Calm   1.6 km/h 96 % 0.0 mm
01:27 14.5 °C 13.9 °C 1008.0 hPa Calm   3.2 km/h 96 % 0.0 mm
01:32 14.4 °C 13.8 °C 1008.4 hPa West 1.6 km/h 3.2 km/h 96 % 0.0 mm
01:37 14.4 °C 13.8 °C 1008.4 hPa Calm   3.2 km/h 96 % 0.0 mm
01:42 14.4 °C 13.8 °C 1008.0 hPa Calm   3.2 km/h 96 % 0.0 mm
01:47 14.4 °C 13.8 °C 1008.4 hPa Calm   3.2 km/h 96 % 0.0 mm
01:52 14.4 °C 13.8 °C 1008.4 hPa Calm   3.2 km/h 96 % 0.0 mm
01:57 14.4 °C 13.8 °C 1008.4 hPa Calm   1.6 km/h 96 % 0.0 mm
02:02 14.4 °C 13.8 °C 1008.4 hPa Calm   1.6 km/h 96 % 0.0 mm
02:07 14.4 °C 13.8 °C 1008.4 hPa Calm   1.6 km/h 96 % 0.0 mm
02:12 14.4 °C 13.8 °C 1008.4 hPa WSW 1.6 km/h   96 % 0.0 mm
02:17 14.5 °C 13.9 °C 1008.0 hPa Calm   3.2 km/h 96 % 0.0 mm
02:22 14.5 °C 13.9 °C 1008.0 hPa Calm   4.8 km/h 96 % 0.0 mm
02:32 14.6 °C 14.0 °C 1008.0 hPa Calm   3.2 km/h 96 % 0.0 mm
02:37 14.6 °C 14.0 °C 1008.0 hPa Calm   1.6 km/h 96 % 0.0 mm
02:42 14.6 °C 14.0 °C 1008.0 hPa Calm   1.6 km/h 96 % 0.0 mm
02:47 14.6 °C 14.0 °C 1008.0 hPa Calm   3.2 km/h 96 % 0.0 mm
02:52 14.6 °C 14.0 °C 1008.0 hPa Calm   3.2 km/h 96 % 0.0 mm
02:57 14.6 °C 14.0 °C 1008.0 hPa Calm   3.2 km/h 96 % 0.0 mm
03:02 14.6 °C 14.0 °C 1008.0 hPa Calm   3.2 km/h 96 % 0.0 mm
03:07 14.5 °C 13.9 °C 1008.0 hPa WSW 1.6 km/h   96 % 0.0 mm
03:12 14.5 °C 13.9 °C 1008.0 hPa Calm   3.2 km/h 96 % 0.0 mm
03:17 14.5 °C 13.9 °C 1007.7 hPa Calm   3.2 km/h 96 % 0.0 mm
03:22 14.4 °C 13.8 °C 1007.7 hPa Calm   3.2 km/h 96 % 0.0 mm
03:27 14.4 °C 13.8 °C 1007.7 hPa Calm   1.6 km/h 96 % 0.3 mm
03:32 14.4 °C 13.8 °C 1007.7 hPa Calm   1.6 km/h 96 % 0.3 mm
03:37 14.4 °C 13.8 °C 1007.7 hPa Calm   1.6 km/h 96 % 0.3 mm
03:52 14.3 °C 13.7 °C 1007.7 hPa Calm   1.6 km/h 96 % 0.3 mm
03:57 14.3 °C 13.7 °C 1007.7 hPa Calm   1.6 km/h 96 % 0.3 mm
04:02 14.3 °C 13.7 °C 1007.7 hPa Calm   1.6 km/h 96 % 0.3 mm
04:07 14.3 °C 13.7 °C 1007.7 hPa Calm   3.2 km/h 96 % 0.3 mm
04:17 14.3 °C 13.7 °C 1007.7 hPa Calm   1.6 km/h 96 % 0.5 mm
04:22 14.3 °C 13.7 °C 1007.7 hPa Calm   1.6 km/h 96 % 0.3 mm
04:27 14.3 °C 13.7 °C 1007.7 hPa Calm   1.6 km/h 96 % 0.3 mm
04:32 14.3 °C 13.7 °C 1007.3 hPa Calm   1.6 km/h 96 % 0.3 mm
04:37 14.2 °C 13.6 °C 1007.7 hPa Calm   1.6 km/h 96 % 0.3 mm
04:42 14.2 °C 13.6 °C 1007.7 hPa Calm   1.6 km/h 96 % 0.3 mm
04:47 14.2 °C 13.6 °C 1007.7 hPa Calm   3.2 km/h 96 % 0.5 mm
04:52 14.2 °C 13.6 °C 1007.7 hPa Calm   3.2 km/h 96 % 0.5 mm
05:02 14.2 °C 13.6 °C 1007.7 hPa Calm   3.2 km/h 96 % 0.5 mm
05:12 14.2 °C 13.6 °C 1007.7 hPa Calm   1.6 km/h 96 % 0.5 mm
05:17 14.2 °C 13.6 °C 1007.7 hPa Calm   1.6 km/h 96 % 0.3 mm
05:22 14.2 °C 13.6 °C 1007.7 hPa Calm   1.6 km/h 96 % 0.3 mm
05:32 14.2 °C 13.6 °C 1007.7 hPa Calm   3.2 km/h 96 % 0.5 mm
05:42 14.2 °C 13.6 °C 1007.7 hPa Calm   3.2 km/h 96 % 0.5 mm
05:47 14.2 °C 13.6 °C 1007.7 hPa Calm   3.2 km/h 96 % 0.5 mm
05:52 14.2 °C 13.6 °C 1007.7 hPa Calm   3.2 km/h 96 % 0.5 mm
06:02 14.1 °C 13.5 °C 1007.7 hPa Calm   3.2 km/h 96 % 0.5 mm
06:12 14.1 °C 13.5 °C 1007.7 hPa Calm   1.6 km/h 96 % 0.5 mm
06:17 14.1 °C 13.5 °C 1007.7 hPa Calm   3.2 km/h 96 % 0.5 mm
06:22 14.1 °C 13.5 °C 1007.7 hPa Calm   3.2 km/h 96 % 0.5 mm
06:32 14.1 °C 13.5 °C 1007.7 hPa Calm   3.2 km/h 96 % 0.5 mm
06:42 14.1 °C 13.5 °C 1007.7 hPa Calm     96 % 0.5 mm
06:47 14.1 °C 13.5 °C 1007.7 hPa Calm   1.6 km/h 96 % 0.3 mm
06:52 14.1 °C 13.5 °C 1007.7 hPa Calm   1.6 km/h 96 % 0.3 mm
07:02 14.1 °C 13.5 °C 1008.0 hPa Calm   1.6 km/h 96 % 0.3 mm
07:12 14.1 °C 13.5 °C 1008.0 hPa Calm   1.6 km/h 96 % 0.3 mm
07:17 14.1 °C 13.5 °C 1008.0 hPa Calm   1.6 km/h 96 % 0.3 mm
07:22 14.1 °C 13.5 °C 1008.0 hPa Calm   1.6 km/h 96 % 0.3 mm
07:32 14.1 °C 13.5 °C 1008.0 hPa Calm   1.6 km/h 96 % 0.0 mm
07:42 14.0 °C 13.4 °C 1008.0 hPa Calm   1.6 km/h 96 % 0.3 mm
07:47 14.0 °C 13.4 °C 1008.0 hPa Calm   3.2 km/h 96 % 0.3 mm
07:52 14.0 °C 13.4 °C 1008.0 hPa Calm   3.2 km/h 96 % 0.3 mm
07:57 14.0 °C 13.4 °C 1008.0 hPa Calm     96 % 0.3 mm
08:02 13.9 °C 13.3 °C 1008.4 hPa SW 1.6 km/h   96 % 0.3 mm
08:12 13.6 °C 12.8 °C 1008.4 hPa Calm   3.2 km/h 95 % 0.3 mm
08:17 13.5 °C 12.7 °C 1008.4 hPa Calm   6.4 km/h 95 % 0.3 mm
08:22 13.4 °C 12.6 °C 1008.4 hPa Calm   6.4 km/h 95 % 0.3 mm
08:32 13.3 °C 12.5 °C 1008.4 hPa Calm   6.4 km/h 95 % 0.5 mm
08:42 13.4 °C 12.6 °C 1008.4 hPa East 1.6 km/h 1.6 km/h 95 % 0.3 mm
08:47 13.5 °C 12.7 °C 1008.4 hPa Calm   3.2 km/h 95 % 0.3 mm
08:52 13.6 °C 12.8 °C 1008.4 hPa Calm   3.2 km/h 95 % 0.3 mm
08:57 13.6 °C 12.8 °C 1008.4 hPa Calm   6.4 km/h 95 % 0.3 mm
09:02 13.7 °C 12.9 °C 1008.4 hPa Calm   6.4 km/h 95 % 0.3 mm
09:12 13.9 °C 13.1 °C 1008.4 hPa Calm   4.8 km/h 95 % 0.3 mm
09:17 13.9 °C 12.9 °C 1008.4 hPa Calm   4.8 km/h 94 % 0.3 mm
09:22 14.0 °C 13.0 °C 1008.4 hPa Calm   4.8 km/h 94 % 0.3 mm
09:32 14.1 °C 13.1 °C 1008.4 hPa SW 1.6 km/h 4.8 km/h 94 % 0.0 mm
09:52 14.0 °C 12.7 °C 1008.7 hPa Calm   4.8 km/h 92 % 0.0 mm
09:57 14.1 °C 12.8 °C 1008.7 hPa Calm   4.8 km/h 92 % 0.0 mm
10:02 14.1 °C 12.7 °C 1008.7 hPa Calm   4.8 km/h 91 % 0.0 mm
10:07 14.0 °C 12.6 °C 1008.7 hPa Calm   8.0 km/h 91 % 0.0 mm
10:12 13.9 °C 12.6 °C 1008.7 hPa Calm   8.0 km/h 92 % 0.0 mm
10:17 13.8 °C 12.5 °C 1009.0 hPa Calm   6.4 km/h 92 % 0.0 mm
10:22 13.8 °C 12.7 °C 1009.0 hPa Calm   4.8 km/h 93 % 0.0 mm
10:32 13.9 °C 12.8 °C 1009.0 hPa Calm   4.8 km/h 93 % 0.0 mm
10:37 13.8 °C 12.5 °C 1009.0 hPa Calm   6.4 km/h 92 % 0.3 mm
10:42 13.8 °C 12.5 °C 1009.0 hPa SW 1.6 km/h 6.4 km/h 92 % 0.5 mm
10:47 13.8 °C 12.5 °C 1009.0 hPa Calm   3.2 km/h 92 % 0.5 mm
10:52 13.8 °C 12.5 °C 1009.0 hPa Calm   4.8 km/h 92 % 0.5 mm
10:57 13.7 °C 12.4 °C 1009.4 hPa Calm   4.8 km/h 92 % 0.8 mm
11:02 13.7 °C 12.4 °C 1009.4 hPa Calm   4.8 km/h 92 % 0.8 mm
11:07 13.6 °C 12.2 °C 1009.4 hPa Calm   4.8 km/h 91 % 1.0 mm
11:12 13.5 °C 12.2 °C 1009.4 hPa SE 1.6 km/h 4.8 km/h 92 % 1.0 mm
11:17 13.4 °C 12.1 °C 1009.4 hPa Calm   4.8 km/h 92 % 1.3 mm
11:22 13.3 °C 12.0 °C 1009.4 hPa SSE 1.6 km/h 6.4 km/h 92 % 1.5 mm
11:32 13.2 °C 11.9 °C 1009.4 hPa Calm   6.4 km/h 92 % 1.5 mm
11:37 13.1 °C 11.8 °C 1009.4 hPa Calm   6.4 km/h 92 % 1.5 mm
11:42 13.0 °C 11.9 °C 1009.4 hPa Calm   6.4 km/h 93 % 1.5 mm
11:47 13.1 °C 12.0 °C 1009.4 hPa Calm   6.4 km/h 93 % 1.5 mm
11:52 13.2 °C 12.1 °C 1009.4 hPa Calm   6.4 km/h 93 % 1.5 mm
11:57 13.2 °C 12.1 °C 1009.4 hPa Calm   6.4 km/h 93 % 1.5 mm
12:02 13.2 °C 12.1 °C 1009.4 hPa Calm   6.4 km/h 93 % 1.5 mm
12:07 13.3 °C 12.2 °C 1009.4 hPa SW 3.2 km/h 4.8 km/h 93 % 1.5 mm
12:12 13.4 °C 12.5 °C 1009.4 hPa Calm   3.2 km/h 94 % 1.5 mm
12:17 13.4 °C 12.3 °C 1009.4 hPa Calm   3.2 km/h 93 % 1.5 mm
12:22 13.4 °C 12.3 °C 1009.4 hPa ESE 1.6 km/h 3.2 km/h 93 % 1.5 mm
12:27 13.4 °C 12.3 °C 1009.4 hPa West 1.6 km/h 3.2 km/h 93 % 1.5 mm
12:32 13.3 °C 12.2 °C 1009.4 hPa Calm   6.4 km/h 93 % 1.8 mm
12:42 13.5 °C 12.4 °C 1009.4 hPa Calm   6.4 km/h 93 % 1.5 mm
12:47 13.6 °C 12.5 °C 1009.4 hPa Calm   6.4 km/h 93 % 1.5 mm
12:52 13.6 °C 12.5 °C 1009.4 hPa Calm   6.4 km/h 93 % 1.5 mm
12:57 13.6 °C 12.5 °C 1009.4 hPa Calm   6.4 km/h 93 % 1.5 mm
13:12 13.6 °C 12.5 °C 1009.4 hPa WSW 3.2 km/h 9.7 km/h 93 % 1.0 mm
13:17 13.7 °C 12.8 °C 1009.4 hPa WSW 1.6 km/h 9.7 km/h 94 % 1.0 mm
13:22 13.8 °C 12.7 °C 1009.4 hPa West 3.2 km/h 9.7 km/h 93 % 0.8 mm
13:27 13.8 °C 12.9 °C 1009.4 hPa WSW 1.6 km/h 9.7 km/h 94 % 0.8 mm
13:32 13.9 °C 12.9 °C 1009.4 hPa Calm   9.7 km/h 94 % 0.8 mm
13:37 13.9 °C 12.8 °C 1009.4 hPa SW 3.2 km/h 6.4 km/h 93 % 0.5 mm
13:42 13.9 °C 12.8 °C 1009.4 hPa SW 3.2 km/h 6.4 km/h 93 % 0.5 mm
13:47 13.9 °C 12.9 °C 1009.4 hPa SW 1.6 km/h 8.0 km/h 94 % 0.5 mm
13:52 13.8 °C 12.9 °C 1009.4 hPa WSW 3.2 km/h 8.0 km/h 94 % 0.5 mm
13:57 13.7 °C 12.8 °C 1009.4 hPa Calm   8.0 km/h 94 % 0.5 mm
14:02 13.7 °C 12.8 °C 1009.4 hPa SW 3.2 km/h 8.0 km/h 94 % 0.5 mm
14:12 13.8 °C 13.0 °C 1009.4 hPa Calm   8.0 km/h 95 % 1.0 mm
14:17 13.8 °C 12.9 °C 1009.4 hPa WSW 1.6 km/h 8.0 km/h 94 % 1.3 mm
14:22 13.9 °C 13.1 °C 1009.4 hPa Calm   8.0 km/h 95 % 1.5 mm
14:32 13.9 °C 13.1 °C 1009.4 hPa Calm   6.4 km/h 95 % 1.5 mm
14:37 13.9 °C 12.9 °C 1009.4 hPa WSW 3.2 km/h 4.8 km/h 94 % 1.5 mm
14:42 13.9 °C 13.1 °C 1009.4 hPa Calm   4.8 km/h 95 % 1.5 mm
14:47 13.9 °C 13.1 °C 1009.4 hPa West 1.6 km/h 6.4 km/h 95 % 1.5 mm
14:52 13.9 °C 13.1 °C 1009.4 hPa Calm   8.0 km/h 95 % 1.5 mm
14:57 13.9 °C 13.1 °C 1009.4 hPa West 1.6 km/h 8.0 km/h 95 % 1.5 mm
15:02 13.9 °C 13.1 °C 1009.4 hPa Calm   8.0 km/h 95 % 1.3 mm
15:07 14.0 °C 13.2 °C 1009.4 hPa Calm   4.8 km/h 95 % 1.3 mm
15:12 14.0 °C 13.2 °C 1009.4 hPa Calm   3.2 km/h 95 % 1.5 mm
15:17 14.1 °C 13.3 °C 1009.4 hPa WSW 1.6 km/h 3.2 km/h 95 % 1.3 mm
15:22 14.1 °C 13.3 °C 1009.4 hPa Calm   4.8 km/h 95 % 1.3 mm
15:32 14.2 °C 13.4 °C 1009.4 hPa Calm   4.8 km/h 95 % 1.3 mm
15:42 14.4 °C 13.6 °C 1009.4 hPa Calm   1.6 km/h 95 % 1.5 mm
15:47 14.3 °C 13.5 °C 1009.7 hPa Calm   1.6 km/h 95 % 1.5 mm
15:52 14.3 °C 13.5 °C 1009.7 hPa Calm   3.2 km/h 95 % 1.5 mm
15:57 14.3 °C 13.5 °C 1009.7 hPa NNE 3.2 km/h 3.2 km/h 95 % 1.5 mm
16:02 14.3 °C 13.3 °C 1009.7 hPa Calm   3.2 km/h 94 % 1.5 mm
16:17 14.6 °C 13.8 °C 1009.7 hPa Calm   3.2 km/h 95 % 1.5 mm
16:27 14.7 °C 13.7 °C 1009.7 hPa Calm   3.2 km/h 94 % 1.3 mm
16:32 14.6 °C 13.5 °C 1009.7 hPa Calm   3.2 km/h 93 % 1.3 mm
16:37 14.6 °C 13.6 °C 1009.7 hPa East 3.2 km/h 11.3 km/h 94 % 1.0 mm
16:42 14.4 °C 13.4 °C 1009.7 hPa Calm   11.3 km/h 94 % 0.8 mm
16:47 14.3 °C 13.3 °C 1009.7 hPa Calm   6.4 km/h 94 % 0.5 mm
16:52 14.2 °C 13.2 °C 1009.7 hPa Calm   6.4 km/h 94 % 0.5 mm
16:57 14.2 °C 13.2 °C 1009.7 hPa Calm   6.4 km/h 94 % 0.5 mm
17:02 14.2 °C 13.2 °C 1009.7 hPa Calm   6.4 km/h 94 % 0.8 mm
17:12 14.1 °C 13.1 °C 1009.7 hPa NE 1.6 km/h 8.0 km/h 94 % 0.5 mm
17:17 13.9 °C 12.9 °C 1009.7 hPa Calm   8.0 km/h 94 % 0.5 mm
17:22 13.8 °C 12.9 °C 1009.7 hPa Calm   8.0 km/h 94 % 0.5 mm
17:27 13.8 °C 12.9 °C 1009.7 hPa Calm   8.0 km/h 94 % 0.8 mm
17:32 13.9 °C 13.1 °C 1009.7 hPa Calm   8.0 km/h 95 % 0.5 mm
17:37 13.9 °C 13.1 °C 1009.7 hPa Calm   6.4 km/h 95 % 0.5 mm
17:42 14.0 °C 13.2 °C 1009.7 hPa Calm   3.2 km/h 95 % 0.5 mm
17:47 13.9 °C 13.1 °C 1009.7 hPa North 1.6 km/h 9.7 km/h 95 % 0.5 mm
17:52 13.9 °C 12.9 °C 1009.7 hPa ENE 3.2 km/h 9.7 km/h 94 % 0.5 mm
17:57 13.7 °C 12.8 °C 1009.7 hPa Calm   9.7 km/h 94 % 0.3 mm
18:02 13.7 °C 12.8 °C 1009.7 hPa NE 1.6 km/h 9.7 km/h 94 % 0.3 mm
18:12 13.6 °C 12.8 °C 1009.7 hPa Calm   11.3 km/h 95 % 0.5 mm
18:17 13.6 °C 12.8 °C 1009.7 hPa Calm   11.3 km/h 95 % 0.5 mm
18:22 13.7 °C 12.9 °C 1009.7 hPa Calm   11.3 km/h 95 % 0.5 mm
18:27 13.6 °C 12.7 °C 1009.7 hPa Calm   11.3 km/h 94 % 0.5 mm
18:32 13.4 °C 12.5 °C 1009.7 hPa NE 1.6 km/h 14.5 km/h 94 % 0.3 mm
18:42 13.3 °C 12.4 °C 1009.7 hPa NE 1.6 km/h 14.5 km/h 94 % 0.3 mm
18:47 13.3 °C 12.5 °C 1010.0 hPa ENE 1.6 km/h 14.5 km/h 95 % 0.5 mm
18:57 13.3 °C 12.5 °C 1010.0 hPa Calm   6.4 km/h 95 % 0.5 mm
19:02 13.3 °C 12.5 °C 1010.0 hPa Calm   6.4 km/h 95 % 0.5 mm
19:12 13.4 °C 12.6 °C 1010.0 hPa Calm   6.4 km/h 95 % 0.5 mm
19:17 13.3 °C 12.5 °C 1010.0 hPa Calm   6.4 km/h 95 % 0.5 mm
19:22 13.2 °C 12.4 °C 1010.0 hPa NE 1.6 km/h 11.3 km/h 95 % 0.5 mm
19:32 13.1 °C 12.3 °C 1010.0 hPa Calm   11.3 km/h 95 % 0.5 mm
19:42 13.2 °C 12.4 °C 1010.0 hPa Calm   8.0 km/h 95 % 0.5 mm
19:47 13.2 °C 12.6 °C 1010.0 hPa Calm   6.4 km/h 96 % 0.5 mm
19:52 13.2 °C 12.6 °C 1010.0 hPa Calm   6.4 km/h 96 % 0.5 mm
19:57 13.2 °C 12.6 °C 1010.0 hPa Calm     96 % 0.8 mm
20:02 13.1 °C 12.5 °C 1010.0 hPa Calm     96 % 0.5 mm
20:12 13.1 °C 12.3 °C 1010.0 hPa Calm   6.4 km/h 95 % 0.8 mm
20:17 13.1 °C 12.5 °C 1010.0 hPa Calm   4.8 km/h 96 % 0.8 mm
20:22 13.0 °C 12.2 °C 1010.0 hPa Calm   4.8 km/h 95 % 0.8 mm
20:32 12.9 °C 12.1 °C 1010.0 hPa Calm   8.0 km/h 95 % 0.8 mm
20:37 12.8 °C 12.0 °C 1010.4 hPa Calm   8.0 km/h 95 % 0.8 mm
20:42 12.8 °C 12.0 °C 1010.4 hPa Calm   8.0 km/h 95 % 0.5 mm
20:52 12.8 °C 12.0 °C 1010.4 hPa Calm   4.8 km/h 95 % 0.8 mm
20:57 12.7 °C 11.9 °C 1010.4 hPa Calm   4.8 km/h 95 % 0.5 mm
21:07 12.7 °C 11.9 °C 1010.0 hPa Calm   4.8 km/h 95 % 1.0 mm
21:12 12.6 °C 11.8 °C 1010.4 hPa Calm   11.3 km/h 95 % 0.8 mm
21:17 12.7 °C 12.1 °C 1010.4 hPa Calm   11.3 km/h 96 % 0.8 mm
21:22 12.6 °C 12.0 °C 1010.4 hPa Calm   11.3 km/h 96 % 1.0 mm
21:32 12.6 °C 12.0 °C 1010.4 hPa Calm   4.8 km/h 96 % 1.3 mm
21:37 12.6 °C 12.0 °C 1010.4 hPa Calm   8.0 km/h 96 % 1.5 mm
21:42 12.6 °C 12.0 °C 1010.4 hPa Calm   8.0 km/h 96 % 1.5 mm
21:47 12.6 °C 12.0 °C 1010.4 hPa Calm   4.8 km/h 96 % 1.5 mm
21:52 12.6 °C 12.0 °C 1010.4 hPa Calm   3.2 km/h 96 % 1.5 mm
21:57 12.6 °C 12.0 °C 1010.4 hPa Calm   6.4 km/h 96 % 1.5 mm
22:02 12.6 °C 12.0 °C 1010.7 hPa Calm   6.4 km/h 96 % 1.5 mm
22:12 12.6 °C 12.0 °C 1010.7 hPa Calm   1.6 km/h 96 % 1.8 mm
22:17 12.5 °C 11.9 °C 1010.7 hPa Calm   3.2 km/h 96 % 1.8 mm
22:22 12.5 °C 11.9 °C 1010.7 hPa Calm   3.2 km/h 96 % 2.0 mm
22:27 12.4 °C 11.8 °C 1010.7 hPa ENE 1.6 km/h 3.2 km/h 96 % 1.8 mm
22:32 12.4 °C 11.8 °C 1010.7 hPa Calm   3.2 km/h 96 % 1.5 mm
22:37 12.4 °C 11.8 °C 1010.7 hPa Calm   4.8 km/h 96 % 1.8 mm
22:42 12.4 °C 11.8 °C 1010.7 hPa SE 3.2 km/h 4.8 km/h 96 % 1.5 mm
22:47 12.4 °C 11.8 °C 1010.7 hPa Calm   4.8 km/h 96 % 1.5 mm
22:52 12.4 °C 11.8 °C 1010.7 hPa Calm   4.8 km/h 96 % 1.5 mm
22:57 12.4 °C 11.8 °C 1010.7 hPa Calm   4.8 km/h 96 % 1.5 mm
23:07 12.4 °C 11.8 °C 1010.7 hPa Calm   4.8 km/h 96 % 1.3 mm
23:12 12.4 °C 11.8 °C 1010.7 hPa Calm   3.2 km/h 96 % 1.3 mm
23:17 12.4 °C 11.8 °C 1010.7 hPa Calm   3.2 km/h 96 % 1.0 mm
23:22 12.4 °C 11.8 °C 1010.7 hPa SE 1.6 km/h 1.6 km/h 96 % 0.8 mm
23:32 12.4 °C 11.8 °C 1010.7 hPa SW 1.6 km/h 6.4 km/h 96 % 0.5 mm
23:37 12.4 °C 11.8 °C 1010.4 hPa Calm   3.2 km/h 96 % 0.5 mm
23:42 12.3 °C 11.7 °C 1010.4 hPa Calm   8.0 km/h 96 % 0.5 mm
23:47 12.3 °C 11.7 °C 1010.4 hPa Calm   8.0 km/h 96 % 0.5 mm
23:52 12.3 °C 11.7 °C 1010.4 hPa Calm   8.0 km/h 96 % 0.3 mm
23:57 12.3 °C 11.7 °C 1010.4 hPa Calm   4.8 km/h 96 % 0.5 mm
Meteo18
Compliments of Weather Underground - 4 mb

Script developed by  Jim McMurry - jmcmurry@mwt.net Adapted for the template by  Wim van der Kuil - Leuven-Template.eu

You find our weather info also at:

European Weather Network

Weather Underground

Equipment we use:

Weather-station
Davis Vue

Weather-program
Meteohub

Weather-server
Raspberry PI 2 B+

Provider
1 and 1

Davis Vue

Meteohub

Raspberry PI 2 B+

1 and 1